When you browse on this site, cookies collect data to enhance your experience and personalize the content and advertising you see.
Visit our Privacy Policy to learn more. By continuing to use the site, you agree to this use of cookies and data.
  • In Hungary
  • List of Countries
  • For 7 days
  • Water Temperature
  • Weather Map
  • News
  • Weather Widgets
  • user-avatar
    Login

    Hourly Weather Aktyubinskiy

    Today, 14 October, Monday

    Time Temperature Precipitation Wind Pressure Humidity
    00:00 +7°C° 0 mm 5 mps 733 mmHg 82%
    01:00 +7°C° 0 mm 6 mps 733 mmHg 79%
    02:00 +7°C° 0.2 mm 6 mps 732 mmHg 79%
    03:00 +6°C° 0.2 mm 7 mps 732 mmHg 78%
    04:00 +7°C° 0 mm 8 mps 731 mmHg 78%
    05:00 +8°C° 0.2 mm 7 mps 731 mmHg 81%
    06:00 +8°C° 0.2 mm 7 mps 730 mmHg 83%
    07:00 +8°C° 0.2 mm 7 mps 730 mmHg 86%
    08:00 +8°C° 1.3 mm 6 mps 730 mmHg 86%
    09:00 +8°C° 1.3 mm 6 mps 730 mmHg 86%
    10:00 +9°C° 1.3 mm 5 mps 730 mmHg 86%
    11:00 +10°C° 0.1 mm 6 mps 730 mmHg 73%
    12:00 +11°C° 0.1 mm 7 mps 730 mmHg 61%
    13:00 +12°C° 0.1 mm 8 mps 730 mmHg 49%
    14:00 +12°C° 0 mm 7 mps 730 mmHg 50%
    15:00 +11°C° 0 mm 7 mps 731 mmHg 52%
    16:00 +11°C° 0 mm 7 mps 731 mmHg 53%
    17:00 +10°C° 0 mm 7 mps 732 mmHg 57%
    18:00 +10°C° 0 mm 6 mps 732 mmHg 61%
    19:00 +9°C° 0 mm 6 mps 732 mmHg 64%
    20:00 +8°C° 0 mm 6 mps 733 mmHg 67%
    21:00 +7°C° 0 mm 5 mps 733 mmHg 70%
    22:00 +7°C° 0 mm 5 mps 734 mmHg 73%
    23:00 +6°C° 0 mm 5 mps 734 mmHg 74%

    Tomorrow, 15 October, Tuesday

    Time Temperature Precipitation Wind Pressure Humidity
    00:00 +6°C° 0 mm 5 mps 734 mmHg 76%
    01:00 +5°C° 0 mm 6 mps 734 mmHg 77%
    02:00 +4°C° 0 mm 6 mps 734 mmHg 78%
    03:00 +4°C° 0 mm 6 mps 735 mmHg 80%
    04:00 +4°C° 0 mm 6 mps 735 mmHg 81%
    05:00 +4°C° 0 mm 6 mps 735 mmHg 82%
    06:00 +4°C° 0 mm 6 mps 735 mmHg 83%
    07:00 +5°C° 0 mm 5 mps 735 mmHg 83%
    08:00 +5°C° 0 mm 6 mps 735 mmHg 78%
    09:00 +6°C° 0 mm 7 mps 735 mmHg 73%
    10:00 +9°C° 0 mm 7 mps 736 mmHg 68%
    11:00 +9°C° 0.1 mm 8 mps 735 mmHg 66%
    12:00 +10°C° 0.1 mm 8 mps 735 mmHg 65%
    13:00 +10°C° 0.1 mm 8 mps 734 mmHg 63%
    14:00 +8°C° 1.3 mm 9 mps 734 mmHg 70%
    15:00 +8°C° 1.3 mm 9 mps 733 mmHg 78%
    16:00 +7°C° 1.3 mm 10 mps 732 mmHg 85%
    17:00 +8°C° 1.8 mm 10 mps 731 mmHg 83%
    18:00 +9°C° 1.8 mm 10 mps 731 mmHg 82%
    19:00 +11°C° 1.8 mm 10 mps 730 mmHg 80%
    20:00 +12°C° 0.6 mm 10 mps 729 mmHg 80%
    21:00 +12°C° 0.6 mm 9 mps 729 mmHg 80%
    22:00 +13°C° 0.6 mm 9 mps 728 mmHg 80%
    23:00 +12°C° 0.1 mm 8 mps 728 mmHg 79%

    Day after tomorrow, 16 October, Wednesday

    Time Temperature Precipitation Wind Pressure Humidity
    00:00 +12°C° 0.1 mm 8 mps 728 mmHg 78%
    01:00 +12°C° 0.1 mm 7 mps 728 mmHg 78%
    02:00 +11°C° 0.1 mm 7 mps 728 mmHg 80%
    03:00 +10°C° 0.1 mm 7 mps 728 mmHg 83%
    04:00 +10°C° 0.1 mm 8 mps 728 mmHg 85%
    05:00 +9°C° 0.1 mm 7 mps 729 mmHg 82%
    06:00 +8°C° 0.1 mm 7 mps 729 mmHg 79%
    07:00 +6°C° 0.1 mm 7 mps 729 mmHg 76%
    08:00 +6°C° 0 mm 7 mps 730 mmHg 74%
    09:00 +6°C° 0 mm 7 mps 731 mmHg 73%
    10:00 +6°C° 0 mm 7 mps 731 mmHg 71%
    11:00 +6°C° 0.1 mm 7 mps 732 mmHg 68%
    12:00 +7°C° 0.1 mm 6 mps 732 mmHg 65%
    13:00 +7°C° 0.1 mm 6 mps 733 mmHg 62%
    14:00 +6°C° 0.1 mm 7 mps 733 mmHg 59%
    15:00 +6°C° 0.1 mm 7 mps 734 mmHg 56%
    16:00 +5°C° 0.1 mm 8 mps 734 mmHg 53%
    17:00 +5°C° 0 mm 7 mps 735 mmHg 56%
    18:00 +4°C° 0 mm 7 mps 735 mmHg 60%
    19:00 +3°C° 0 mm 6 mps 736 mmHg 64%
    20:00 +2°C° 0 mm 6 mps 736 mmHg 65%
    21:00 +2°C° 0 mm 5 mps 737 mmHg 67%
    22:00 +1°C° 0 mm 5 mps 738 mmHg 68%
    23:00 +1°C° 0 mm 5 mps 738 mmHg 69%

    17 October, Thursday

    Time Temperature Precipitation Wind Pressure Humidity
    00:00 0°C° 0 mm 5 mps 738 mmHg 70%
    01:00 0°C° 0 mm 5 mps 739 mmHg 72%
    02:00 -1°C° 0 mm 5 mps 739 mmHg 73%
    03:00 -1°C° 0 mm 5 mps 740 mmHg 74%
    04:00 -1°C° 0 mm 4 mps 740 mmHg 75%
    05:00 -2°C° 0 mm 4 mps 741 mmHg 77%
    06:00 -2°C° 0 mm 4 mps 741 mmHg 78%
    07:00 -2°C° 0 mm 4 mps 742 mmHg 80%
    08:00 -1°C° 0 mm 4 mps 742 mmHg 72%
    09:00 +1°C° 0 mm 3 mps 742 mmHg 65%
    10:00 +2°C° 0 mm 3 mps 743 mmHg 58%
    11:00 +3°C° 0 mm 3 mps 743 mmHg 55%
    12:00 +4°C° 0 mm 4 mps 743 mmHg 52%
    13:00 +4°C° 0 mm 4 mps 743 mmHg 49%
    14:00 +4°C° 0 mm 4 mps 743 mmHg 50%
    15:00 +4°C° 0 mm 4 mps 743 mmHg 51%
    16:00 +4°C° 0 mm 4 mps 743 mmHg 52%
    17:00 +4°C° 0 mm 3 mps 743 mmHg 56%
    18:00 +3°C° 0 mm 3 mps 743 mmHg 60%
    19:00 +3°C° 0 mm 2 mps 743 mmHg 64%
    20:00 +3°C° 0 mm 2 mps 743 mmHg 65%
    21:00 +2°C° 0 mm 3 mps 743 mmHg 65%
    22:00 +2°C° 0 mm 3 mps 743 mmHg 65%
    23:00 +2°C° 0 mm 3 mps 742 mmHg 65%

    18 October, Friday

    Time Temperature Precipitation Wind Pressure Humidity
    00:00 +2°C° 0 mm 3 mps 742 mmHg 65%
    01:00 +1°C° 0 mm 4 mps 742 mmHg 65%
    02:00 +1°C° 0 mm 4 mps 741 mmHg 63%
    03:00 +3°C° 0 mm 4 mps 741 mmHg 60%
    04:00 +3°C° 0 mm 4 mps 741 mmHg 58%
    05:00 +2°C° 0 mm 5 mps 740 mmHg 56%
    06:00 +2°C° 0 mm 5 mps 740 mmHg 55%
    07:00 +2°C° 0 mm 6 mps 739 mmHg 54%
    08:00 +3°C° 0 mm 7 mps 739 mmHg 50%
    09:00 +5°C° 0 mm 8 mps 738 mmHg 46%
    10:00 +6°C° 0 mm 9 mps 738 mmHg 42%
    11:00 +7°C° 0 mm 9 mps 737 mmHg 40%
    12:00 +8°C° 0 mm 9 mps 737 mmHg 38%
    13:00 +9°C° 0 mm 10 mps 736 mmHg 35%
    14:00 +8°C° 0 mm 9 mps 735 mmHg 39%
    15:00 +9°C° 0 mm 8 mps 734 mmHg 43%
    16:00 +9°C° 0 mm 8 mps 734 mmHg 46%
    17:00 +9°C° 0 mm 8 mps 733 mmHg 52%
    18:00 +9°C° 0 mm 7 mps 732 mmHg 57%
    19:00 +8°C° 0 mm 7 mps 732 mmHg 62%
    20:00 +8°C° 0 mm 7 mps 731 mmHg 65%
    21:00 +8°C° 0 mm 7 mps 730 mmHg 67%
    22:00 +8°C° 0 mm 7 mps 730 mmHg 70%
    23:00 +6°C° 0.1 mm 7 mps 729 mmHg 75%

    19 October, Saturday

    Time Temperature Precipitation Wind Pressure Humidity
    00:00 +5°C° 0.1 mm 6 mps 729 mmHg 79%
    01:00 +5°C° 0.1 mm 6 mps 729 mmHg 84%
    02:00 +4°C° 0.6 mm 6 mps 729 mmHg 80%
    03:00 +3°C° 0.6 mm 7 mps 729 mmHg 76%
    04:00 0°C° 0.6 mm 8 mps 729 mmHg 72%
    05:00 -1°C° 0 mm 8 mps 729 mmHg 70%
    06:00 -2°C° 0 mm 8 mps 730 mmHg 68%
    07:00 -4°C° 0 mm 8 mps 730 mmHg 66%
    08:00 -2°C° 0 mm 8 mps 730 mmHg 63%
    09:00 -2°C° 0 mm 8 mps 731 mmHg 60%
    10:00 -3°C° 0 mm 9 mps 731 mmHg 57%
    11:00 -1°C° 0 mm 9 mps 732 mmHg 55%
    12:00 -1°C° 0 mm 9 mps 732 mmHg 53%
    13:00 -1°C° 0 mm 9 mps 732 mmHg 51%
    14:00 -1°C° 0 mm 9 mps 733 mmHg 51%
    15:00 -1°C° 0 mm 9 mps 733 mmHg 51%
    16:00 -1°C° 0 mm 9 mps 733 mmHg 51%
    17:00 -1°C° 0 mm 8 mps 734 mmHg 54%
    18:00 -2°C° 0 mm 7 mps 735 mmHg 58%
    19:00 -3°C° 0 mm 6 mps 735 mmHg 61%
    20:00 -3°C° 0 mm 6 mps 736 mmHg 63%
    21:00 -3°C° 0 mm 7 mps 737 mmHg 65%
    22:00 -4°C° 0 mm 7 mps 737 mmHg 67%
    23:00 -4°C° 0 mm 7 mps 738 mmHg 66%
    Show more